Flag for Germany Weather past 2 weeks in Mosbach, Baden-Württemberg, Germany

Now
43 °F

Light rain. Overcast.


Feels Like: 39 °F
Forecast: 42 / 48 °F
Wind: 8 mph from West

Location: Oehringen

Current Time: Oct 22, 2014 at 2:27:15 PM

Latest Report: Oct 22, 2014 at 2:00 PM


Visibility: 6 mi

Pressure: 30.06 "Hg

Humidity: 91%

Dew point: 41 °F

Location of MosbachLocation

Historic Weather in Mosbach — Graph

°F

Mosbach temperature yesterday

Maximum temperature yesterday: 61 °F (at 3:00 PM)
Minimum temperature yesterday: 46 °F (at 11:00 PM)
Average temperature yesterday: 54 °F

Past Weeks' High & Low Weather Summary

 TemperatureHumidityPressure
High79 °F (Oct 9, 3:00 PM)99% (Oct 11, 8:00 AM)30.21 "Hg (Oct 11, 8:00 AM)
Low43 °F (Oct 22, 10:00 AM)38% (Oct 9, 3:00 PM)29.62 "Hg (Oct 21, 7:00 PM)
Average59 °F84%29.92 "Hg
* Reported Oct 7 1:00 PM — Oct 22 1:00 PM, Mosbach, Weather by CustomWeather, © 2014

Note: Actual official high and low records may vary slightly from our data, if they occured in-between our weather recording intervals... More about our weather records

Advertising

Mosbach weather history for previous 24 hours

 ConditionsComfort  
Time TempWeatherWind HumidityBarometerVisibility
1:00 PM
Oct 22
43 °FLight rain. Overcast.10 mph91%30.06 "Hg5 mi
12:00 PM44 °FLight freezing rain. Overcast.9 mph86%30.05 "Hg9 mi
11:00 AM44 °FOvercast.7 mph87%30.04 "Hg13 mi
10:00 AM43 °FLight freezing rain. Overcast.8 mph88%30.05 "Hg9 mi
9:00 AM43 °FDrizzle. Overcast.8 mph83%30.01 "Hg11 mi
8:00 AM43 °FOvercast.7 mph88%29.99 "Hg15 mi
7:00 AM44 °FDrizzle. Overcast.8 mph80%29.96 "Hg19 mi
6:00 AM45 °FLight rain. Overcast.8 mph77%29.95 "Hg19 mi
5:00 AM45 °FOvercast.8 mph81%29.94 "Hg22 mi
4:00 AM46 °FOvercast.8 mph78%29.95 "Hg22 mi
3:00 AM46 °FOvercast.8 mph78%29.97 "Hg25 mi
2:00 AM47 °FOvercast.8 mph76%29.96 "Hg28 mi
1:00 AM46 °FOvercast.7 mph78%29.94 "Hg34 mi
12:00 AM47 °FOvercast.8 mph78%29.92 "Hg34 mi
11:00 PM
Oct 21
46 °FOvercast.8 mph86%29.87 "Hg28 mi
10:00 PM49 °FOvercast.9 mph81%29.79 "Hg34 mi
9:00 PM50 °FOvercast.9 mph85%29.74 "Hg31 mi
8:00 PM49 °FLight rain. Overcast.14 mph87%29.71 "Hg6 mi
7:00 PM56 °FDrizzle. Overcast.5 mph88%29.62 "Hg25 mi
6:00 PM60 °FOvercast.6 mph68%29.64 "Hg43 mi
5:00 PM60 °FOvercast.6 mph64%29.69 "Hg37 mi
4:00 PM60 °FOvercast.8 mph65%29.74 "Hg43 mi
3:00 PM61 °FOvercast.7 mph63%29.78 "Hg43 mi
2:00 PM60 °FOvercast.6 mph66%29.80 "Hg37 mi
Weather by CustomWeather, © 2014

See weather overviewHow to use our weather pages